Welcome to the New NWS' Forecast!
Most changes are behind the scenes, but click here for differences you might notice.
Latest weather observations around

Jonesboro, Jonesboro Municipal Airport (KJBR)

Using English Units (Switch to International System of Units)
Date/ Time (CST) Wind (mph) Vis. (mi) Weather Sky Cond. Temp (°F) Rel. Humidity Wind Chill (°F) Heat Index (°F) Pressure Precip. (in)
Air Dwpt 6 hour Altimeter (inHg) Sea level (inHg) 1 hr 3 hr 6 hr
Max Min
Dec 14 01:53 WNW 5 10 Clear CLR 40 28     62% 37   29.89 29.89      
Dec 14 00:53 WNW 7 10 Clear CLR 45 29     53% 41   29.87 29.87      
Dec 13 23:53 WNW 7 10 Clear CLR 46 29     51% 42   29.86 29.86      
Dec 13 22:53 W 7 10 Clear CLR 47 29     49% 44   29.85 29.85      
Dec 13 21:53 W 6 10 Clear CLR 48 28     46% 45   29.83 29.82      
Dec 13 20:53 SSW 6 10 Clear CLR 47 29     49% 44   29.81 29.81      
Dec 13 19:53 WSW 6 10 Clear CLR 49 29     46% 46   29.81 29.81      
Dec 13 18:53 WSW 7 10 Clear CLR 51 29     42%     29.8 29.79      
Dec 13 17:53 W 5 10 Clear CLR 50 29     44% 48   29.77 29.77      
Dec 13 16:53 SW 11 10 Clear CLR 53 29     39%     29.75 29.75      
Dec 13 15:53 SW 15 10 Clear CLR 56 28     34%     29.74 29.74      
Dec 13 14:53 SW 20 10 Clear and Windy CLR 57 27     31%     29.74 29.74      
Dec 13 13:53 SW 24 10 Clear and Windy CLR 58 27     30%     29.75 29.75      
Dec 13 12:53 SW 25 10 Clear and Windy CLR 55 26     32%     29.78 29.78      
Dec 13 11:53 SW 25 10 Clear and Windy CLR 51 26     38%     29.8 29.8      
Dec 13 10:53 SSW 24 10 Clear and Windy CLR 47 25     42% 39   29.87 29.87      
Dec 13 09:53 SSW 22 10 Clear and Windy CLR 43 24     47% 34   29.9 29.9      
Dec 13 08:53 SSW 20 10 Clear and Windy CLR 39 23     52% 29   29.93 29.93      
Dec 13 07:53 SSW 14 7 Clear CLR 34 23     64% 25   29.97 29.97      
Dec 13 05:53 SSW 6 10 Clear CLR 30 20     66% 24   30.01 30.01      
Dec 13 04:53 SW 3 10 Clear CLR 31 19     61% 28   30.03 30.03      
Dec 13 03:53 SW 3 10 Clear CLR 31 19     61% 28   30.06 30.06      
Dec 13 02:53 W 3 10 Clear CLR 29 20     69% 25   30.09 30.09      
Dec 13 01:53 Calm 10 Clear CLR 28 20     71%     30.11 30.11      
Dec 13 00:53 Calm 10 Clear CLR 30 19     63%     30.12 30.12      
Dec 12 23:53 Calm 10 Clear CLR 28 20     71%     30.14 30.14      
Dec 12 22:53 Calm 10 Clear CLR 31 20     63%     30.14 30.14      
Dec 12 21:53 Calm 10 Clear CLR 30 20     66%     30.15 30.16      
Dec 12 20:53 W 5 10 Clear CLR 34 16     47% 30   30.16 30.16      
Dec 12 19:53 Calm 10 Clear CLR 33 20     58%     30.16 30.16      
Dec 12 18:53 NNW 5 10 Clear CLR 37 18     46% 33   30.17 30.17      
Dec 12 17:53 NW 5 10 Clear CLR 39 16     39% 36   30.17 30.17      
Dec 12 16:53 NW 5 10 Clear CLR 43 15     32% 40   30.17 30.16      
Dec 12 15:53 NNW 7 10 Clear CLR 46 16     30% 42   30.18 30.18      
Dec 12 14:53 WNW 15 10 Clear CLR 45 19     35% 38   30.18 30.17      
Dec 12 13:53 NW 9 10 Clear CLR 45 21     38% 40   30.19 30.19      
Dec 12 12:53 NW 11 10 Clear CLR 44 24     45% 38   30.21 30.21      
Dec 12 11:53 NW 10 10 Clear CLR 43 25     49% 37   30.24 30.24      
Dec 12 10:53 NNW 8 10 Clear CLR 41 26     55% 36   30.25 30.24      
Dec 12 09:53 NW 15 10 Clear CLR 40 27     60% 32   30.25 30.24      
Dec 12 08:53 NW 16 10 Clear CLR 40 27     60% 31   30.23 30.23      
Dec 12 07:53 NW 14 10 Clear CLR 41 27     57% 33   30.2 30.2      
Dec 12 06:53 NW 14 10 Clear CLR 41 29     62% 33   30.18 30.17      
Dec 12 05:53 NW 15 10 Mostly Cloudy BKN047 44 31     60% 37   30.15 30.14      
Dec 12 04:53 NW 13 10 Mostly Cloudy BKN048 46 33     60% 40   30.11 30.11      
Dec 12 03:53 NW 9 10 Clear CLR 46 33     60% 41   30.09 30.08      
Dec 12 02:53 NW 10 10 Clear CLR 47 33     58% 42   30.07 30.07      
Dec 12 01:53 NW 9 10 Clear CLR 48 33     56% 44   30.07 30.06      
Dec 12 00:53 NW 10 10 Clear CLR 49 32     52% 45   30.05 30.04      
Dec 11 23:53 NW 10 10 Clear CLR 52 31     44%     30.03 30.03      
Dec 11 22:53 NNW 13 10 Clear CLR 53 30     41%     30.02 30.01      
Dec 11 21:53 NW 9 10 Clear CLR 55 27     34%     30 30      
Dec 11 20:53 NW 11 10 Clear CLR 56 27     33%     29.99 29.98      
Dec 11 19:53 NNW 15 10 Clear CLR 56 27     33%     29.97 29.97      
Dec 11 18:53 NNW 22 10 Clear and Windy CLR 60 25     26%     29.94 29.94      
Dec 11 17:53 W 14 10 Clear CLR 63 27     25%     29.9 29.89      
Dec 11 16:53 WSW 13 10 Clear CLR 60 35     39%     29.87 29.87      
Dec 11 15:53 SW 15 10 Clear CLR 66 34     30%     29.86 29.86      
Dec 11 14:53 SW 24 10 Clear and Windy CLR 67 33     28%     29.86 29.86      
Dec 11 13:53 SW 24 10 Clear and Windy CLR 66 34     30%     29.9 29.89      
Dec 11 12:53 SW 18 10 Clear CLR 63 37     38%     29.94 29.94      
Dec 11 11:53 SW 17 10 Clear CLR 60 35     39%     30 30      
Dec 11 10:53 SSW 10 10 Clear CLR 56 34     43%     30.06 30.06      
Dec 11 09:53 SW 7 10 Clear CLR 51 32     48%     30.1 30.1      
Dec 11 08:53 SW 10 10 Clear CLR 45 32     60% 40   30.12 30.12      
Dec 11 07:53 SW 5 10 Clear CLR 38 31     76% 34   30.12 30.12      
Dec 11 06:53 SW 3 10 Clear CLR 36 29     75% 33   30.13 30.13      
Dec 11 05:53 W 7 10 Clear CLR 38 29     70% 33   30.15 30.14      
Dec 11 04:53 W 3 10 Clear CLR 35 29     78% 32   30.14 30.14      
Dec 11 03:53 W 5 10 Clear CLR 33 28     82% 29   30.16 30.16      
Dec 11 02:53 Calm 10 Clear CLR 35 29     78%     30.17 30.17      
Dec 11 01:53 Calm 10 Clear CLR 35 29     78%     30.17 30.16      
Jun 10 21:53 S 6 10 Clear CLR 75 62     64%   75 29.97 29.96      
Jun 10 11:53 SW 10 10 Partly Cloudy SCT050 83 59     44%   83 30.01 30.01      
Jun 09 23:53 Calm 10 Clear CLR 62 58     86%     29.95 29.94      
Jun 08 22:53 Calm 10 Clear CLR 63 56     78%     29.93 29.92      
Jun 08 06:53 NNE 6 10 Clear CLR 64 55     73%     30.01 30      
Jun 06 11:53 E 7 10 Mostly Clear FEW003 82 68     63%   85 29.84 29.83      
Jun 06 01:53 Calm 4 Fog/Mist CLR 69 67     93%     29.8 29.79